Погода в Морле

Франция     48°34′38″N   3°49′36″W
темп.,
°C
ветер,
м/с
пор.,
м/с
влажн.,
%
обл.,
%
осадки,
мм/ч
давл.,
гПа
погр.,
м
6 мая, чт
чт623:00+6юз3682100 0.1 1014444
02:00+5юв2597100 1.1 1010166
05:00+5юв41297100 1.4 1006486
08:00+9зюз4129882 4.8 1004842
11:00+11з8138924 1.1 10031060
14:00+11з61189100 2.4 10051132
17:00+9с4588100 0.4 1008780
20:00+8ссз468471 0.5 1011785
7 мая, пт
пт723:00+3зсз119449 0.0 101414
02:00+4з119014 0.0 101624
05:00+2зюз118189 0.0 101610
08:00+4ююв1175100 0.0 101824
11:00+10юв2248100 0.0 1018954
14:00+12ююз3344100 0.0 10171410
17:00+14ю345199 0.0 10161602
20:00+9ююв5981100 0.1 1015515
8 мая, сб
сб823:00+9ююв61393100 0.1 1014613
02:00+11ю61398100 0.4 1011530
05:00+12ю71595100 0.3 1008811
08:00+12ююз81788100 0.3 1007846
11:00+16ююз9167497 0.0 10061081
14:00+19ююз1016583 0.0 10051491
17:00+18ююз916600 0.0 10041499
20:00+15ююз815710 0.0 10031141
9 мая, вс
вс923:00+13ю717720 0.0 1001811
02:00+13ююз717740 0.0 999918
05:00+12ююз6168354 0.0 997967
08:00+13ююз51485100 0.0 996981
11:00+13ююз71684100 0.2 9961472
14:00+15юз7135796 0.3 9971485
17:00+15ююз8135683 0.0 9971789
20:00+12ююз71375100 0.1 9971303
10 мая, пн
пн1023:00+9ююз6128868 0.1 998908
02:00+10юз6128089 0.2 9991046
05:00+8юз5118580 0.1 1001893
08:00+9ююз5118397 0.1 1002926
11:00+12ююз7127096 0.3 10031526
14:00+14ююз8135636 1.1 10032031
17:00+14юз7125313 0.4 10031971
20:00+11юз510663 0.5 10051337